GPS IIR-4

operational
NORAD ID: 26360 Int'l Des: 2000-025 Owner: AFSMC Country: US Constellation: GPS
MEOCIRCULARGNSS

About GPS IIR-4

Description loading...

Live Position

Loading 3D Globe...

Upcoming Passes

Altitude History

Altitude vs Time

uPlot chart will show altitude changes over time

Two-Line Element Set

1 26360U 00025A 25259.36703062 -.00000077 00000-0 00000-0 0 9999
2 26360 54.9960 30.3702 0036991 234.6377 133.5032 2.00574415185781
Epoch: Sep 16, 2025 • Age: 16 hours

Current Status

Altitude 20192.1 km
Velocity 3.87 km/s
Sub-Earth Point 32.25°N, 170.67°E
Launch Date May 11, 2000
Age 25.3 years
Type navigation

Technical Details

Classification Payload
Mass 1077.00 kg
Dry Mass 910.00 kg
Total Mass 2032.00 kg
Length 1.50 m
Diameter 1.90 m
Span 19.30 m
Shape Box + 2 Pan
Manufacturer LMMS
Bus Type Series 4000
Phase Status In Orbit
Owner/State AFSMC/US

Large Constellations

Loading constellations...